This is the latest recevied weather packets stored in our database for station/object IT9RID. If no packets are shown the sender has not sent any weather packets the latest 10 day(s).
| Time | Temp. | Humidity | Pressure | Rain* | Wind** | Luminosity | Snow |
|---|---|---|---|---|---|---|---|
| 1787864842 | 28.33° C | 64% | 1017.8 hPa | 0 mm | - | - | - |
| 1787864242 | 28.33° C | 66% | 1017.8 hPa | 0 mm | - | - | - |
| 1787863642 | 28.33° C | 67% | 1017.9 hPa | 0 mm | - | - | - |
| 1787863042 | 28.33° C | 69% | 1018 hPa | 0 mm | - | - | - |
| 1787862443 | 28.33° C | 70% | 1017.9 hPa | 0 mm | - | - | - |
| 1787861842 | 28.89° C | 69% | 1018 hPa | 0 mm | - | - | - |
| 1787861242 | 28.89° C | 69% | 1018 hPa | 0 mm | - | - | - |
| 1787860641 | 28.89° C | 68% | 1018 hPa | 0 mm | - | - | - |
| 1787860041 | 29.44° C | 68% | 1017.9 hPa | 0 mm | - | - | - |
| 1787859441 | 29.44° C | 68% | 1017.9 hPa | 0 mm | - | - | - |
| 1787858841 | 29.44° C | 67% | 1017.8 hPa | 0 mm | - | - | - |
| 1787858241 | 30° C | 68% | 1017.7 hPa | 0 mm | - | - | - |
| 1787857641 | 30° C | 68% | 1017.5 hPa | 0 mm | - | - | - |
| 1787857040 | 30° C | 67% | 1017.3 hPa | 0 mm | - | - | - |
| 1787856440 | 30° C | 67% | 1017.2 hPa | 0 mm | - | - | - |
| 1787855840 | 30° C | 67% | 1017 hPa | 0 mm | - | - | - |
| 1787855241 | 30° C | 67% | 1016.9 hPa | 0 mm | - | - | - |
| 1787854640 | 30.56° C | 65% | 1016.8 hPa | 0 mm | - | - | - |
| 1787854040 | 30.56° C | 64% | 1016.7 hPa | 0 mm | - | - | - |
| 1787853440 | 30.56° C | 64% | 1016.7 hPa | 0 mm | - | - | - |
| 1787852839 | 30.56° C | 65% | 1016.6 hPa | 0 mm | - | - | - |
| 1787852239 | 31.11° C | 64% | 1016.6 hPa | 0 mm | - | - | - |
| 1787851639 | 31.11° C | 65% | 1016.5 hPa | 0 mm | - | - | - |
| 1787851039 | 31.11° C | 64% | 1016.4 hPa | 0 mm | - | - | - |
| 1787849839 | 32.78° C | 60% | 1016.2 hPa | 0 mm | - | - | - |
* Rain latest hour (hover to see other rain measurements)
** Current wind speed in m/s (hover to see current wind gust speed)